Regional Weather Roundup
Issued by NWS

Home | Current Version | Previous Version | Graphics & Text | Print | Product List | Glossary On
Versions: 1 2 3 4 5 6 7 8 9 10 11 12 13 14 15 16 17 18 19 20 21 22 23 24 25 26 27 28 29 30 31 32 33 34 35 36 37 38 39 40 41 42 43 44 45 46 47 48 49 50
000
ASUS45 KBOI 040810
RWRID

IDAHO REGIONAL WEATHER ROUNDUP
NATIONAL WEATHER SERVICE BOISE ID
200 AM MDT FRI SEP 04 2015

NOTE: "FAIR" INDICATES FEW OR NO CLOUDS BELOW 12000 FEET
WITH NO SIGNIFICANT WEATHER AND/OR OBSTRUCTIONS TO VISIBILITY

IDZ012-014-040900-
SOUTHWEST IDAHO


CITY           SKY/WX    TMP DP  RH WIND       PRES   REMARKS
BOISE          CLOUDY    56  42  59 CALM      29.85F
CALDWELL       CLOUDY    54  34  47 W12       29.88S
MOUNTAIN HOME  CLOUDY    59  40  49 NW13      29.84S
$$

IDZ016-017-040900-
SOUTHCENTRAL IDAHO


CITY           SKY/WX    TMP DP  RH WIND       PRES   REMARKS
BURLEY         PTCLDY    53  39  59 SW7       29.85F
JEROME         CLOUDY    54  39  57 SW7       29.86F
TWIN FALLS     MOCLDY    57  34  41 S10       29.87S
$$

IDZ019>023-040900-
SOUTHEAST IDAHO


CITY           SKY/WX    TMP DP  RH WIND       PRES   REMARKS
IDAHO FALLS    MOCLDY    58  43  57 S14       29.87R
POCATELLO      CLEAR     55  41  59 SW13      29.87S
REXBURG        MOCLDY    57  50  77 SE3       29.86R
$$

IDZ006-010-011-018-031-032-040900-
CENTRAL IDAHO MOUNTAINS


CITY           SKY/WX    TMP DP  RH WIND       PRES   REMARKS
MCCALL         PTCLDY    39  37  92 CALM      29.93S
HAILEY         CLOUDY    59  36  41 NW5       29.88F
STANLEY          N/A     45  41  86 CALM      30.00R
SALMON         CLOUDY    50  45  81 CALM      29.90F
CHALLIS        CLOUDY    53  41  63 NW5       29.91S
$$

IDZ002-004-006-007-026-040900-
NORTHERN IDAHO


CITY           SKY/WX    TMP DP  RH WIND       PRES   REMARKS
LEWISTON       CLEAR     48  40  73 SE5       29.94S
LOWELL           N/A     49  47  93 NW3       29.98F
COEUR D`ALENE  MOCLDY    45  36  70 NE6       29.96S
MULLAN PASS    CLEAR     39  32  76 CALM      29.99F
$$



USA.gov is the U.S. government's official web portal to all federal, state and local government web resources and services.